星链-32653 (STARLINK-32653)

导读

STARLINK-32653是美国SpaceX公司星链星座的组成卫星,于2024年12月4日发射入轨,属于全球低轨宽带互联网卫星网络的扩容任务。星链旨在为全球偏远、基础设施匮乏地区提供高速低延迟宽带服务,该卫星入轨后将助力星座覆盖范围与服务能力提升,推动全球互联网接入普及,是SpaceX 2024年百次发射、近两千颗星链部署计划的组成部分。

基本信息
目录编号:
62199
目录名称:
STARLINK-32653
国际标识:
2024-229H
轨道中心:
EARTH
卫星名称:
星链-32653
卫星全名:
星链-32653 (STARLINK-32653)
卫星状态:
在轨 (已飞行646 天)
发射日期:
2024-12-04 UTC
国别 :
美国 (US)
星等 :
--
该卫星已列入 空间交会检测服务 Space Conjunction Data Service (SCDS) ,当前飞行风险评估等级: 高风险
轨道信息
数据来源 国际轨道数据 AOE轨道数据
星历时间 2026-09-11T11:32:15+0800
9小时前
查看轨道信息
2026-09-06T06:00:00+0800
5天前
查看轨道信息
半长轴 6861.18km 6861.229km
偏心率 0.0001141 0.0001654
轨道倾角 42.999° 43.002°
近地点辐角 264.313° 259.794°
升交点赤经 296.475° 326.017°
平近点角 95.759° 101.349°
近地点 482.26km 481.957km
远地点 483.826km 484.227km
周期 94.267分钟 94.268分钟
每日圈数 15.275822 15.275657
详细信息
固有亮度:
5
最大亮度:
2.5
卫星平台:
Starlink V1.0
覆盖范围:
全球
运营商:
太空探索技术公司
运营商所在国:
美国
制造商(研发单位):
太空探索技术公司
制造商所在国:
美国
使用方式:
暂无
卫星简介
Starlink 计划是 SpaceX 推出的全球卫星互联网项目,通过发射低轨道卫星,为全球尤其是偏远地区提供高速、低延迟的互联网服务。自 2019 年起,Starlink 已部署数千颗卫星,旨在缩小全球数字鸿沟,推动互联网普及。该项目还为军事、航空等行业提供通信支持,带来广泛经济效益。
2D轨道图
3D轨道图
轨道高度分析图
轨道倾角分析图
轨道综合分析图
查看轨道综合分析图
交会数据列表
事件ID 空间交会对象 最接近时刻(TCA) 交会距离 交会风险概率(CRP) 交会风险指数(CRI) 操作
CDM_260912-003706-219906-801421
2026-09-12T
00:37:01+0000
0.078 km
近距离
1.256902E-3 极高风险 0.97
CDM_260912-201506-219906-659921
2026-09-12T
20:15:11+0000
0.214 km
中距离
6.583232E-4 高风险 0.91
CDM_260911-195506-219906-659921
2026-09-11T
19:55:49+0000
0.639 km
远距离
8.66327E-5 中风险 0.74
CDM_260912-021106-219906-801421
2026-09-12T
02:11:10+0000
0.806 km
远距离
4.217521E-5 中风险 0.68
CDM_260912-201405-842106-219921
2026-09-12T
20:14:35+0000
0.896 km
远距离
2.999637E-5 中风险 0.65
CDM_260911-230206-219906-801421
2026-09-11T
23:02:52+0000
0.933 km
远距离
2.594882E-5 中风险 0.63
CDM_260910-042705-843306-219921
2026-09-10T
04:27:00+0000
1.565 km
极远距离
5.301347E-6 低风险 0.49
CDM_260913-220905-848806-219921
2026-09-13T
22:09:52+0000
1.533 km
极远距离
4.877842E-6 低风险 0.49
CDM_260912-033806-219906-311921
2026-09-12T
03:38:21+0000
1.471 km
极远距离
4.645645E-6 低风险 0.48
CDM_260912-021105-842106-219921
2026-09-12T
02:11:49+0000
1.621 km
极远距离
4.035478E-6 低风险 0.47
与全量物体交会距离演化趋势
与全量物体交会风险概率演化趋势